WNISAT-1

Last updated on Wed Oct 29 2025 00:03:53 GMT+0000 (Coordinated Universal Time)

1 39423U 13066H 25301.42296437 .00002086 00000+0 39191-3 0 9996 2 39423 97.6916 102.5509 0163472 241.7240 116.7381 14.57436008632967
UTC large
Height (km)
Speed (km/s)
/
Latitude / Longitude
Inclination (degrees)
Orbital Period (minutes)
Azimuth
Elevation
Range (km)
Doppler Factor

Next 0 passes for location: London (51.5072 / 0.1276)

Sorry there are no passes over London.